DELTA 1 DEB, 21466

Orbit data source: Space-Track

DELTA 1 DEB, 21466 is space debris in SSO originally from a launch on Thu, 12 Jun 1975 UTC launched from the Air Force Western Test Range (AFWTR). Debris objects in space refer to the collection of defunct objects orbiting the Earth. Examples of debris include non-operational satellites, rocket bodies, and fragments generated from explosions, collisions, or faulty payload assembly.

Loading next visibility...
Identifier
21466, 1975-052FA
Orbit
SSO
Country
Flag of USUS
Related business
Manufacturer
Unknown
Mission
Spacecraft
Bus & Motor
Unknown
Mass
Unknown
Launch date (UTC)
1975-06-12 (51 years ago)
Launch vehicle
Unknown
Launch site
Air Force Western Test Range (AFWTR)
Object type
Payload
Rocket body
Debris
Shape & HBR
Unknown shape, 0.1 m
Radar Cross Section
Small (<0.1 m²)

Expand to show TLE details & history
Last TLE update: 2 days ago

TLE from 2 days ago
0 DELTA 1 DEB
1 21466U 75052FA  25349.97196535  .00000203  00000-0  55784-3 0  9993
2 21466  99.6523 164.4528 0135729 199.0258 314.8802 13.22117100667739
Epoch: 2025-12-15T23:19Z
TLE epoch observation values (Epoch: 2025-12-15T23:19:37.806Z)
Latitude
26.83032°
Longitude
-85.40801°
Altitude
1,108.117 km
Speed
7.335 km/s
True Right ascension
23h 17m 26s
True Declination
26° 41' 55"
Sunlit
Object was in daylight at epoch
Visualization orbit readout
Latitude
Unknown
Longitude
Unknown
Altitude
Unknown
Speed
Unknown
Apparent Right ascension
Unknown
Apparent Declination
Unknown
Sunlit
N/A
Visualization observer readout
Local Sidereal Time
13:10:05
Azimuth
Unknown
Elevation
Unknown
Doppler factor
Unknown
Orbital elements
Apogee altitude
1,276.484 km
Perigee altitude
1,071.476 km
Semi-major axis
7,552.117 km
Eccentricity
0.01357
Inclination
99.6523°
RAAN
164.4528°
Arg. of periapsis
199.0258°
True anomaly
313.76483°
Mean anomaly
314.8802°
Eccentric anomaly
314.32385°
Mean motion
3.30705 °/min
Orbital period
108.86 mins
BSTAR
0.00055784
Loading maneuver chart data...
Computing Atmospheric mass density...
Loading historical data...
Loading historical data...
Loading historical data...
Loading historical data...
Loading historical data...
Loading historical data...
Loading historical data...

Documentation

Showing up to 5 results
|